Погода в Нейи-сюре-Сене

Франция     48°53′19″N   2°16′26″E
темп.,
°C
ветер,
м/с
пор.,
м/с
влажн.,
%
обл.,
%
осадки,
мм/ч
давл.,
гПа
погр.,
м
7 мая, пт
пт723:00+6зсз269357 0.0 1011253
02:00+4з26945 0.0 1012193
05:00+3з26930 0.0 1014157
08:00+5зсз24820 0.0 1016170
11:00+10зсз35525 0.0 10181210
14:00+14зсз33375 0.0 10182058
17:00+15зсз3432100 0.0 10182482
20:00+13сз2344100 0.0 1018796
8 мая, сб
сб823:00+10вюв115714 0.0 101818
02:00+8ююв236393 0.0 101788
05:00+7ююв387271 0.0 1016226
08:00+9ююв41170100 0.0 1015428
11:00+14ю596294 0.0 1013755
14:00+19ююз6105480 0.0 10111498
17:00+21юз694518 0.0 10091836
20:00+20ююз485872 0.0 10081111
9 мая, вс
вс923:00+16юв387746 0.0 1007183
02:00+15юв41279100 0.0 1005347
05:00+14ююв31383100 0.4 1002348
08:00+15ю41387100 1.0 1002562
11:00+19ю5126679 0.4 10011066
14:00+24ююз7124639 0.4 10001836
17:00+19ююз91571100 0.4 10011314
20:00+16ююз61384100 1.9 10011002
10 мая, пн
пн1023:00+14ююз3991100 0.5 1001583
02:00+11з61193100 6.7 1001707
05:00+11юз51289100 6.1 1004798
08:00+11юз61079100 6.1 10071044
11:00+14юз696136 0.0 10081432
14:00+18юз584381 0.1 10082186
17:00+15ююв4765100 0.5 1008513
20:00+13ююв4783100 2.3 1009339
11 мая, вт
вт1123:00+11ю3890100 1.1 1009201
02:00+10ю279582 1.1 1009219
05:00+9юв2397100 0.0 100977
08:00+10юв1292100 0.0 1009176
11:00+10всв2293100 0.8 1009258
14:00+12ссз0183100 0.9 1008434
17:00+11зсз4792100 1.6 1008402
20:00+11зсз4888100 1.8 1009620